MXD215 WMKK-VABB

Flight info

Callsign MXD215
Flight time 4h 48m
Altitude 36000
Route BIKDU1D BIKDU Y501 RINBA Y502 DUBAX R325 PUT L515 OBMOG M770 SADUS/N0464F380 L301 BUSBO L505 MELAX/N0434F240 W218 OPAKA EMRAK2A
Aircraft B38M/M-SDE1FGHILORVWXY/HB1

Departure

Time 2026-05-06 22:48
Airport Kuala Lumpur International Airport (WMKK)

Arrival

Time 2026-05-07 03:37
Airport Chhatrapati Shivaji Maharaj International Airport (VABB)
Time Latitude Longitude Altitude Speed Heading
2026-05-06 22:10 2.75447 101.70911 75 ft 0 kts 310°
2026-05-06 22:38 2.75432 101.70927 63 ft 4 kts 319°
2026-05-06 22:39 2.75410 101.70942 66 ft 4 kts 337°
2026-05-06 22:39 2.75384 101.70948 64 ft 4 kts
2026-05-06 22:39 2.75362 101.70940 65 ft 3 kts 50°
2026-05-06 22:39 2.75359 101.70936 67 ft 2 kts 56°
2026-05-06 22:42 2.75360 101.70938 64 ft 1 kts 56°
2026-05-06 22:42 2.75370 101.70952 69 ft 4 kts 56°
2026-05-06 22:42 2.75388 101.70979 74 ft 6 kts 56°
2026-05-06 22:43 2.75417 101.71022 67 ft 9 kts 56°
2026-05-06 22:43 2.75453 101.71079 72 ft 11 kts 59°
2026-05-06 22:43 2.75499 101.71144 69 ft 12 kts 53°
2026-05-06 22:43 2.75550 101.71223 72 ft 15 kts 57°
2026-05-06 22:44 2.75613 101.71311 71 ft 17 kts 53°
2026-05-06 22:44 2.75657 101.71417 74 ft 17 kts 115°
2026-05-06 22:44 2.75576 101.71483 69 ft 13 kts 136°
2026-05-06 22:44 2.75575 101.71561 75 ft 12 kts 68°
2026-05-06 22:45 2.75588 101.71585 70 ft 0 kts 57°
2026-05-06 22:45 2.75593 101.71592 70 ft 2 kts 57°
2026-05-06 22:45 2.75605 101.71610 67 ft 4 kts 57°
2026-05-06 22:45 2.75626 101.71642 72 ft 7 kts 57°
2026-05-06 22:46 2.75658 101.71691 65 ft 10 kts 57°
2026-05-06 22:46 2.75692 101.71743 67 ft 7 kts 56°
2026-05-06 22:46 2.75699 101.71748 70 ft 0 kts 25°
2026-05-06 22:46 2.75719 101.71745 71 ft 1 kts 316°
2026-05-06 22:47 2.75720 101.71744 71 ft 1 kts 311°
2026-05-06 22:47 2.75719 101.71714 66 ft 8 kts 244°
2026-05-06 22:47 2.75701 101.71635 75 ft 17 kts 308°
2026-05-06 22:47 2.75852 101.71527 74 ft 46 kts 326°
2026-05-06 22:48 2.76324 101.71209 70 ft 117 kts 326°
2026-05-06 22:48 2.77168 101.70636 90 ft 173 kts 324°
2026-05-06 22:48 2.78245 101.69894 582 ft 193 kts 325°
2026-05-06 22:48 2.79344 101.69159 1474 ft 192 kts 327°
2026-05-06 22:49 2.80589 101.68557 2096 ft 207 kts 338°
2026-05-06 22:49 2.81967 101.68054 2872 ft 216 kts 342°
2026-05-06 22:49 2.83449 101.67562 3529 ft 234 kts 342°
2026-05-06 22:49 2.85062 101.67017 4137 ft 255 kts 341°
2026-05-06 22:50 2.86805 101.66418 4793 ft 274 kts 341°
2026-05-06 22:50 2.88636 101.65784 5690 ft 279 kts 341°
2026-05-06 22:50 2.90509 101.65279 6640 ft 282 kts 357°
2026-05-06 22:50 2.92446 101.65559 7498 ft 284 kts 23°
2026-05-06 22:51 2.94210 101.66486 8326 ft 290 kts 30°
2026-05-06 22:51 2.95983 101.67487 9201 ft 294 kts 31°
2026-05-06 22:51 2.97777 101.68512 10028 ft 299 kts 31°
2026-05-06 22:51 2.99601 101.69563 10715 ft 309 kts 31°
2026-05-06 22:52 3.01511 101.70669 11168 ft 325 kts 31°
2026-05-06 22:52 3.03499 101.71821 11517 ft 343 kts 31°
2026-05-06 22:52 3.05612 101.73046 11921 ft 358 kts 31°
2026-05-06 22:52 3.07779 101.74306 12611 ft 360 kts 31°
2026-05-06 22:53 3.09945 101.75564 13417 ft 361 kts 31°
2026-05-06 22:53 3.12130 101.76834 14015 ft 365 kts 31°
2026-05-06 22:53 3.14336 101.78115 14599 ft 368 kts 31°
2026-05-06 22:53 3.16470 101.79548 15153 ft 370 kts 44°
2026-05-06 22:54 3.18111 101.81520 15741 ft 370 kts 55°
2026-05-06 22:54 3.19607 101.83640 16265 ft 375 kts 56°
2026-05-06 22:54 3.21113 101.85788 16807 ft 378 kts 53°
2026-05-06 22:54 3.23013 101.87617 17356 ft 383 kts 35°
2026-05-06 22:55 3.25411 101.88795 17863 ft 389 kts 18°
2026-05-06 22:55 3.28097 101.89204 18332 ft 394 kts
2026-05-06 22:55 3.30819 101.88813 18753 ft 399 kts 344°
2026-05-06 22:55 3.33354 101.87640 19173 ft 405 kts 326°
2026-05-06 22:56 3.35550 101.85871 19597 ft 408 kts 320°
2026-05-06 22:56 3.37716 101.84012 19992 ft 411 kts 320°
2026-05-06 22:56 3.39871 101.82114 20411 ft 413 kts 319°
2026-05-06 22:56 3.42026 101.80193 20829 ft 416 kts 319°
2026-05-06 22:57 3.44159 101.78276 21219 ft 418 kts 319°
2026-05-06 22:57 3.46323 101.76323 21579 ft 420 kts 318°
2026-05-06 22:57 3.48502 101.74353 21953 ft 423 kts 318°
2026-05-06 22:57 3.50690 101.72373 22293 ft 425 kts 318°
2026-05-06 22:58 3.52889 101.70383 22661 ft 428 kts 318°
2026-05-06 22:58 3.55103 101.68380 23020 ft 430 kts 318°
2026-05-06 22:58 3.57325 101.66368 23386 ft 432 kts 318°
2026-05-06 22:58 3.59562 101.64344 23680 ft 434 kts 318°
2026-05-06 22:59 3.61805 101.62314 23987 ft 436 kts 318°
2026-05-06 22:59 3.64061 101.60271 24287 ft 438 kts 318°
2026-05-06 22:59 3.66323 101.58223 24588 ft 440 kts 318°
2026-05-06 22:59 3.68599 101.56163 24885 ft 441 kts 318°
2026-05-06 23:00 3.70880 101.54098 25187 ft 443 kts 318°
2026-05-06 23:00 3.72400 101.52721 25362 ft 444 kts 318°
2026-05-06 23:00 3.74701 101.50638 25654 ft 446 kts 318°
2026-05-06 23:00 3.77010 101.48547 25951 ft 448 kts 317°
2026-05-06 23:01 3.79322 101.46453 26241 ft 450 kts 317°
2026-05-06 23:01 3.81642 101.44351 26532 ft 452 kts 317°
2026-05-06 23:01 3.84052 101.42312 26770 ft 453 kts 326°
2026-05-06 23:01 3.87775 101.40427 27187 ft 454 kts 335°
2026-05-06 23:02 3.89719 101.39534 27325 ft 456 kts 335°
2026-05-06 23:02 3.92625 101.38218 27571 ft 458 kts 335°
2026-05-06 23:02 3.95542 101.36913 27849 ft 460 kts 335°
2026-05-06 23:02 3.98473 101.35608 28095 ft 462 kts 335°
2026-05-06 23:03 4.01383 101.34313 28349 ft 464 kts 335°
2026-05-06 23:03 4.04336 101.32999 28600 ft 466 kts 335°
2026-05-06 23:03 4.07305 101.31678 28840 ft 468 kts 335°
2026-05-06 23:03 4.10285 101.30353 29083 ft 470 kts 335°
2026-05-06 23:04 4.13279 101.29020 29332 ft 471 kts 335°
2026-05-06 23:04 4.16281 101.27684 29572 ft 473 kts 336°
2026-05-06 23:04 4.19301 101.26342 29810 ft 475 kts 335°
2026-05-06 23:04 4.22331 101.24993 30017 ft 477 kts 335°
2026-05-06 23:05 4.25375 101.23639 30216 ft 479 kts 335°
2026-05-06 23:05 4.28424 101.22281 30419 ft 480 kts 335°
2026-05-06 23:05 4.31484 101.20919 30619 ft 481 kts 335°
2026-05-06 23:05 4.34549 101.19554 30820 ft 483 kts 336°
2026-05-06 23:06 4.37623 101.18185 31018 ft 484 kts 336°
2026-05-06 23:06 4.40702 101.16814 31205 ft 486 kts 336°
2026-05-06 23:06 4.43799 101.15435 31402 ft 487 kts 336°
2026-05-06 23:06 4.46895 101.14056 31645 ft 487 kts 336°
2026-05-06 23:07 4.49992 101.12676 31908 ft 486 kts 336°
2026-05-06 23:07 4.53041 101.11318 32177 ft 486 kts 336°
2026-05-06 23:07 4.56134 101.09941 32443 ft 485 kts 336°
2026-05-06 23:07 4.59228 101.08604 32717 ft 484 kts 337°
2026-05-06 23:08 4.62324 101.07273 33000 ft 483 kts 337°
2026-05-06 23:08 4.65411 101.05942 33270 ft 483 kts 337°
2026-05-06 23:08 4.68492 101.04612 33551 ft 482 kts 337°
2026-05-06 23:08 4.71568 101.03285 33822 ft 481 kts 337°
2026-05-06 23:09 4.74641 101.01958 34059 ft 480 kts 337°
2026-05-06 23:09 4.77710 101.00633 34301 ft 479 kts 337°
2026-05-06 23:09 4.80777 100.99309 34527 ft 479 kts 337°
2026-05-06 23:09 4.83830 100.97991 34783 ft 477 kts 337°
2026-05-06 23:10 4.86877 100.96675 35026 ft 476 kts 337°
2026-05-06 23:10 4.89916 100.95363 35256 ft 475 kts 337°
2026-05-06 23:10 4.92955 100.94050 35486 ft 475 kts 337°
2026-05-06 23:10 4.95985 100.92741 35715 ft 474 kts 337°
2026-05-06 23:11 4.98970 100.91452 35816 ft 474 kts 337°
2026-05-06 23:11 5.05010 100.88842 35822 ft 472 kts 337°
2026-05-06 23:12 5.11038 100.86238 35822 ft 471 kts 337°
2026-05-06 23:12 5.17064 100.83634 35824 ft 472 kts 337°
2026-05-06 23:13 5.23088 100.81030 35820 ft 471 kts 337°
2026-05-06 23:13 5.29111 100.78425 35821 ft 471 kts 337°
2026-05-06 23:14 5.35137 100.75820 35824 ft 471 kts 337°
2026-05-06 23:14 5.40945 100.72782 35824 ft 472 kts 331°
2026-05-06 23:15 5.46670 100.69556 35822 ft 472 kts 331°
2026-05-06 23:15 5.52391 100.66323 35815 ft 471 kts 331°
2026-05-06 23:16 5.58098 100.63097 35815 ft 471 kts 331°
2026-05-06 23:16 5.63808 100.59868 35812 ft 471 kts 330°
2026-05-06 23:17 5.69478 100.56660 35813 ft 470 kts 330°
2026-05-06 23:17 5.75180 100.53435 35810 ft 470 kts 330°
2026-05-06 23:18 5.80819 100.50122 35814 ft 469 kts 329°
2026-05-06 23:18 5.86425 100.46756 35818 ft 469 kts 329°
2026-05-06 23:19 5.92029 100.43397 35820 ft 469 kts 329°
2026-05-06 23:19 5.97648 100.40030 35822 ft 469 kts 329°
2026-05-06 23:20 6.03253 100.36669 35825 ft 470 kts 329°
2026-05-06 23:20 6.08868 100.33302 35826 ft 470 kts 329°
2026-05-06 23:21 6.14486 100.29933 35830 ft 470 kts 329°
2026-05-06 23:21 6.20066 100.26585 35831 ft 470 kts 329°
2026-05-06 23:22 6.25678 100.23217 35827 ft 470 kts 329°
2026-05-06 23:22 6.31298 100.19844 35819 ft 470 kts 329°
2026-05-06 23:23 6.36909 100.16475 35821 ft 470 kts 329°
2026-05-06 23:23 6.42493 100.13039 35800 ft 470 kts 322°
2026-05-06 23:24 6.47076 100.08363 35805 ft 471 kts 313°
2026-05-06 23:24 6.51524 100.03513 35810 ft 471 kts 313°
2026-05-06 23:25 6.55945 99.98638 35811 ft 471 kts 313°
2026-05-06 23:25 6.60362 99.93762 35810 ft 472 kts 313°
2026-05-06 23:26 6.64784 99.88878 35814 ft 472 kts 313°
2026-05-06 23:26 6.69178 99.84022 35807 ft 472 kts 313°
2026-05-06 23:27 6.73598 99.79138 35810 ft 472 kts 313°
2026-05-06 23:27 6.78022 99.74247 35808 ft 472 kts 313°
2026-05-06 23:28 6.82445 99.69355 35808 ft 472 kts 313°
2026-05-06 23:28 6.86864 99.64468 35813 ft 472 kts 313°
2026-05-06 23:29 6.91288 99.59573 35813 ft 472 kts 313°
2026-05-06 23:29 6.95706 99.54683 35808 ft 472 kts 313°
2026-05-06 23:30 7.00104 99.49837 35813 ft 472 kts 314°
2026-05-06 23:30 7.04627 99.45033 35813 ft 472 kts 314°
2026-05-06 23:31 7.09138 99.40223 35804 ft 472 kts 314°
2026-05-06 23:31 7.13643 99.35416 35809 ft 472 kts 313°
2026-05-06 23:32 7.18150 99.30607 35806 ft 472 kts 313°
2026-05-06 23:32 7.22653 99.25800 35804 ft 472 kts 313°
2026-05-06 23:33 7.27158 99.20989 35819 ft 472 kts 313°
2026-05-06 23:33 7.31635 99.16206 35812 ft 472 kts 313°
2026-05-06 23:34 7.36144 99.11387 35821 ft 472 kts 313°
2026-05-06 23:34 7.40650 99.06571 35812 ft 472 kts 313°
2026-05-06 23:35 7.45152 99.01756 35821 ft 472 kts 313°
2026-05-06 23:35 7.49654 98.96941 35820 ft 472 kts 313°
2026-05-06 23:36 7.54148 98.92134 35818 ft 471 kts 312°
2026-05-06 23:36 7.58635 98.87331 35821 ft 471 kts 312°
2026-05-06 23:37 7.63128 98.82521 35820 ft 471 kts 312°
2026-05-06 23:37 7.67620 98.77711 35818 ft 471 kts 312°
2026-05-06 23:38 7.72104 98.72897 35817 ft 471 kts 312°
2026-05-06 23:38 7.76583 98.68070 35817 ft 471 kts 312°
2026-05-06 23:39 7.81050 98.63283 35818 ft 471 kts 312°
2026-05-06 23:39 7.85539 98.58468 35817 ft 471 kts 312°
2026-05-06 23:40 7.90032 98.53647 35815 ft 471 kts 312°
2026-05-06 23:40 7.94523 98.48826 35812 ft 472 kts 312°
2026-05-06 23:41 7.99019 98.44000 35806 ft 472 kts 312°
2026-05-06 23:41 8.03514 98.39171 35804 ft 472 kts 312°
2026-05-06 23:42 8.08007 98.34343 35828 ft 472 kts 312°
2026-05-06 23:42 8.12950 98.30039 35828 ft 471 kts 332°
2026-05-06 23:43 8.18769 98.27028 35830 ft 474 kts 332°
2026-05-06 23:43 8.24662 98.24038 35826 ft 474 kts 333°
2026-05-06 23:44 8.30560 98.21072 35821 ft 474 kts 333°
2026-05-06 23:44 8.36472 98.18098 35823 ft 474 kts 333°
2026-05-06 23:45 8.42380 98.15127 35823 ft 474 kts 333°
2026-05-06 23:45 8.48287 98.12155 35821 ft 474 kts 333°
2026-05-06 23:46 8.54183 98.09187 35822 ft 473 kts 333°
2026-05-06 23:46 8.60083 98.06220 35819 ft 473 kts 333°
2026-05-06 23:47 8.65972 98.03259 35821 ft 472 kts 333°
2026-05-06 23:47 8.71819 98.00317 35821 ft 472 kts 333°
2026-05-06 23:48 8.77694 97.97360 35822 ft 472 kts 333°
2026-05-06 23:48 8.83567 97.94404 35827 ft 472 kts 333°
2026-05-06 23:49 8.89438 97.91448 35826 ft 472 kts 333°
2026-05-06 23:49 8.94337 97.88980 35827 ft 472 kts 333°
2026-05-06 23:50 9.00212 97.86018 35825 ft 472 kts 333°
2026-05-06 23:50 9.09030 97.81566 35823 ft 472 kts 333°
2026-05-06 23:51 9.14901 97.78601 35824 ft 472 kts 333°
2026-05-06 23:51 9.20771 97.75634 35824 ft 472 kts 333°
2026-05-06 23:52 9.26605 97.72685 35826 ft 472 kts 333°
2026-05-06 23:52 9.32486 97.69711 35826 ft 472 kts 333°
2026-05-06 23:53 9.38357 97.66741 35825 ft 471 kts 333°
2026-05-06 23:53 9.44224 97.63772 35827 ft 472 kts 333°
2026-05-06 23:54 9.50092 97.60801 35826 ft 472 kts 333°
2026-05-06 23:54 9.55967 97.57825 35826 ft 472 kts 333°
2026-05-06 23:55 9.61816 97.54861 35825 ft 472 kts 333°
2026-05-06 23:55 9.67693 97.51883 35828 ft 472 kts 333°
2026-05-06 23:56 9.73565 97.48905 35828 ft 472 kts 333°
2026-05-06 23:56 9.79441 97.45925 35830 ft 472 kts 333°
2026-05-06 23:57 9.85316 97.42943 35826 ft 472 kts 333°
2026-05-06 23:57 9.91196 97.39958 35826 ft 472 kts 334°
2026-05-06 23:58 9.97074 97.36973 35828 ft 473 kts 333°
2026-05-06 23:58 10.02977 97.33996 35826 ft 473 kts 334°
2026-05-06 23:59 10.08877 97.31029 35831 ft 473 kts 334°
2026-05-06 23:59 10.14733 97.28082 35827 ft 473 kts 334°
2026-05-07 00:00 10.20634 97.25111 35827 ft 473 kts 334°
2026-05-07 00:00 10.26534 97.22141 35831 ft 473 kts 334°
2026-05-07 00:01 10.32440 97.19165 35830 ft 473 kts 334°
2026-05-07 00:01 10.38338 97.16192 35831 ft 473 kts 334°
2026-05-07 00:02 10.44238 97.13217 35833 ft 473 kts 334°
2026-05-07 00:02 10.50137 97.10241 35834 ft 473 kts 334°
2026-05-07 00:03 10.56031 97.07267 35834 ft 473 kts 334°
2026-05-07 00:03 10.61922 97.04292 35837 ft 473 kts 334°
2026-05-07 00:04 10.67817 97.01314 35844 ft 472 kts 334°
2026-05-07 00:04 10.73704 96.98340 35839 ft 472 kts 334°
2026-05-07 00:05 10.79584 96.95367 35840 ft 472 kts 334°
2026-05-07 00:05 10.85464 96.92393 35843 ft 472 kts 334°
2026-05-07 00:06 10.91307 96.89436 35842 ft 472 kts 334°
2026-05-07 00:06 10.97185 96.86460 35840 ft 472 kts 334°
2026-05-07 00:07 11.03066 96.83482 35843 ft 472 kts 334°
2026-05-07 00:07 11.08946 96.80503 35843 ft 472 kts 334°
2026-05-07 00:08 11.14824 96.77523 35841 ft 472 kts 334°
2026-05-07 00:08 11.20721 96.74533 35842 ft 472 kts 334°
2026-05-07 00:09 11.26602 96.71549 35844 ft 472 kts 334°
2026-05-07 00:09 11.32446 96.68583 35844 ft 472 kts 334°
2026-05-07 00:10 11.38328 96.65595 35843 ft 472 kts 334°
2026-05-07 00:10 11.44202 96.62610 35843 ft 472 kts 334°
2026-05-07 00:11 11.50080 96.59623 35845 ft 472 kts 334°
2026-05-07 00:11 11.55967 96.56629 35843 ft 472 kts 334°
2026-05-07 00:12 11.61808 96.53657 35843 ft 472 kts 334°
2026-05-07 00:12 11.67689 96.50664 35844 ft 472 kts 334°
2026-05-07 00:13 11.73570 96.47669 35847 ft 472 kts 334°
2026-05-07 00:13 11.79456 96.44670 35846 ft 473 kts 334°
2026-05-07 00:14 11.85335 96.41673 35847 ft 472 kts 334°
2026-05-07 00:14 11.90973 96.38263 35838 ft 472 kts 317°
2026-05-07 00:15 11.95673 96.33548 35849 ft 474 kts 316°
2026-05-07 00:15 12.00345 96.28790 35845 ft 474 kts 315°
2026-05-07 00:16 12.04973 96.24046 35847 ft 474 kts 315°
2026-05-07 00:16 12.09627 96.19271 35846 ft 473 kts 315°
2026-05-07 00:17 12.14276 96.14498 35844 ft 473 kts 315°
2026-05-07 00:17 12.18919 96.09728 35845 ft 473 kts 315°
2026-05-07 00:18 12.23562 96.04957 35850 ft 473 kts 315°
2026-05-07 00:18 12.28201 96.00186 35847 ft 473 kts 315°
2026-05-07 00:19 12.32805 95.95450 35852 ft 472 kts 315°
2026-05-07 00:19 12.37446 95.90673 35848 ft 472 kts 315°
2026-05-07 00:20 12.42081 95.85899 35848 ft 472 kts 315°
2026-05-07 00:20 12.46707 95.81132 35849 ft 472 kts 315°
2026-05-07 00:21 12.51339 95.76356 35848 ft 473 kts 315°
2026-05-07 00:21 12.55972 95.71577 35849 ft 473 kts 315°
2026-05-07 00:22 12.60602 95.66798 35848 ft 473 kts 315°
2026-05-07 00:22 12.65231 95.62018 35847 ft 473 kts 315°
2026-05-07 00:23 12.69855 95.57240 35849 ft 472 kts 315°
2026-05-07 00:23 12.74451 95.52488 35848 ft 472 kts 315°
2026-05-07 00:24 12.79076 95.47705 35848 ft 472 kts 315°
2026-05-07 00:24 12.83701 95.42918 35847 ft 472 kts 315°
2026-05-07 00:25 12.88265 95.38067 35851 ft 473 kts 314°
2026-05-07 00:25 12.92835 95.33210 35845 ft 472 kts 314°
2026-05-07 00:26 12.97372 95.28385 35847 ft 473 kts 314°
2026-05-07 00:26 13.01935 95.23533 35844 ft 473 kts 314°
2026-05-07 00:27 13.06500 95.18674 35845 ft 473 kts 314°
2026-05-07 00:27 13.11062 95.13816 35845 ft 473 kts 314°
2026-05-07 00:28 13.15622 95.08957 35845 ft 473 kts 314°
2026-05-07 00:28 13.20183 95.04095 35845 ft 473 kts 314°
2026-05-07 00:29 13.24743 94.99230 35849 ft 472 kts 314°
2026-05-07 00:30 13.33861 94.89496 35848 ft 473 kts 314°
2026-05-07 00:30 13.38420 94.84625 35850 ft 473 kts 314°
2026-05-07 00:31 13.42979 94.79750 35849 ft 473 kts 314°
2026-05-07 00:31 13.47510 94.74903 35848 ft 473 kts 314°
2026-05-07 00:32 13.52067 94.70025 35850 ft 473 kts 314°
2026-05-07 00:32 13.56622 94.65146 35848 ft 473 kts 314°
2026-05-07 00:33 13.61180 94.60261 35845 ft 473 kts 314°
2026-05-07 00:33 13.65732 94.55379 35845 ft 473 kts 314°
2026-05-07 00:34 13.70291 94.50488 35846 ft 474 kts 314°
2026-05-07 00:34 13.74847 94.45596 35846 ft 473 kts 314°
2026-05-07 00:35 13.79406 94.40698 35845 ft 473 kts 314°
2026-05-07 00:35 13.83961 94.35803 35848 ft 473 kts 314°
2026-05-07 00:36 13.88518 94.30901 35845 ft 474 kts 314°
2026-05-07 00:36 13.92302 94.26829 35846 ft 474 kts 314°
2026-05-07 00:37 13.97602 94.21122 35846 ft 474 kts 314°
2026-05-07 00:37 14.01418 94.17011 35847 ft 474 kts 314°
2026-05-07 00:38 14.05939 94.12137 35849 ft 474 kts 314°
2026-05-07 00:38 14.10491 94.07226 35851 ft 474 kts 314°
2026-05-07 00:39 14.15046 94.02309 35848 ft 474 kts 314°
2026-05-07 00:39 14.19596 93.97394 35848 ft 474 kts 313°
2026-05-07 00:40 14.24142 93.92482 35849 ft 473 kts 313°
2026-05-07 00:40 14.28688 93.87566 35848 ft 473 kts 313°
2026-05-07 00:41 14.33202 93.82681 35848 ft 473 kts 313°
2026-05-07 00:41 14.37742 93.77765 35847 ft 473 kts 313°
2026-05-07 00:42 14.42277 93.72851 35845 ft 472 kts 313°
2026-05-07 00:42 14.46809 93.67938 35847 ft 472 kts 313°
2026-05-07 00:43 14.51339 93.63024 35849 ft 472 kts 313°
2026-05-07 00:43 14.55866 93.58110 35847 ft 472 kts 313°
2026-05-07 00:44 14.60393 93.53193 35849 ft 472 kts 313°
2026-05-07 00:44 14.64911 93.48281 35850 ft 471 kts 313°
2026-05-07 00:45 14.69426 93.43371 35849 ft 471 kts 313°
2026-05-07 00:45 14.73938 93.38461 35847 ft 471 kts 313°
2026-05-07 00:46 14.78419 93.33581 35850 ft 471 kts 313°
2026-05-07 00:46 14.82955 93.28638 35848 ft 471 kts 313°
2026-05-07 00:47 14.87432 93.23756 35846 ft 471 kts 313°
2026-05-07 00:47 14.91938 93.18840 35850 ft 471 kts 312°
2026-05-07 00:48 14.96439 93.13926 35851 ft 471 kts 312°
2026-05-07 00:48 15.00938 93.09010 35847 ft 471 kts 312°
2026-05-07 00:49 15.05447 93.04080 35850 ft 471 kts 312°
2026-05-07 00:49 15.09919 92.99188 35846 ft 471 kts 312°
2026-05-07 00:50 15.14417 92.94264 35853 ft 470 kts 312°
2026-05-07 00:50 15.18914 92.89338 35851 ft 470 kts 312°
2026-05-07 00:51 15.23409 92.84412 35851 ft 470 kts 312°
2026-05-07 00:51 15.27898 92.79489 35851 ft 470 kts 312°
2026-05-07 00:52 15.32390 92.74560 35852 ft 470 kts 312°
2026-05-07 00:52 15.36854 92.69657 35852 ft 470 kts 311°
2026-05-07 00:53 15.41276 92.64672 35837 ft 468 kts 304°
2026-05-07 00:53 15.42840 92.61752 35854 ft 463 kts 288°
2026-05-07 00:53 15.43784 92.58565 35855 ft 463 kts 284°
2026-05-07 00:54 15.45495 92.52126 35851 ft 463 kts 283°
2026-05-07 00:54 15.47118 92.45658 35851 ft 463 kts 283°
2026-05-07 00:55 15.48714 92.39195 35851 ft 463 kts 283°
2026-05-07 00:55 15.50307 92.32727 35849 ft 462 kts 282°
2026-05-07 00:56 15.51895 92.26267 35850 ft 462 kts 282°
2026-05-07 00:56 15.53482 92.19806 35851 ft 462 kts 282°
2026-05-07 00:57 15.55055 92.13392 35853 ft 461 kts 282°
2026-05-07 00:57 15.56634 92.06948 35856 ft 461 kts 282°
2026-05-07 00:58 15.58208 92.00504 35855 ft 461 kts 282°
2026-05-07 00:58 15.59761 91.94057 35855 ft 460 kts 282°
2026-05-07 00:59 15.62087 91.84396 35855 ft 460 kts 282°
2026-05-07 01:00 15.63635 91.77952 35853 ft 460 kts 282°
2026-05-07 01:00 15.65178 91.71523 35851 ft 459 kts 282°
2026-05-07 01:01 15.66710 91.65134 35852 ft 459 kts 282°
2026-05-07 01:01 15.68248 91.58706 35850 ft 459 kts 282°
2026-05-07 01:02 15.69787 91.52270 35852 ft 459 kts 282°
2026-05-07 01:02 15.71323 91.45834 35855 ft 459 kts 282°
2026-05-07 01:03 15.72860 91.39387 35853 ft 460 kts 282°
2026-05-07 01:03 15.74394 91.32942 35853 ft 460 kts 282°
2026-05-07 01:04 15.75924 91.26505 35854 ft 460 kts 282°
2026-05-07 01:04 15.77447 91.20090 35854 ft 460 kts 282°
2026-05-07 01:05 15.78986 91.13596 35851 ft 460 kts 281°
2026-05-07 01:05 15.80515 91.07137 35854 ft 461 kts 281°
2026-05-07 01:06 15.82032 91.00719 35856 ft 461 kts 281°
2026-05-07 01:06 15.83559 90.94252 35857 ft 461 kts 281°
2026-05-07 01:07 15.85083 90.87785 35854 ft 461 kts 281°
2026-05-07 01:07 15.86607 90.81310 35854 ft 461 kts 281°
2026-05-07 01:08 15.88128 90.74841 35854 ft 461 kts 281°
2026-05-07 01:08 15.89648 90.68367 35856 ft 461 kts 281°
2026-05-07 01:09 15.91163 90.61900 35856 ft 460 kts 281°
2026-05-07 01:09 15.92674 90.55443 35854 ft 460 kts 281°
2026-05-07 01:10 15.94184 90.48988 35856 ft 460 kts 281°
2026-05-07 01:10 15.95680 90.42575 35853 ft 459 kts 281°
2026-05-07 01:11 15.97183 90.36126 35854 ft 459 kts 281°
2026-05-07 01:11 15.98685 90.29675 35853 ft 459 kts 281°
2026-05-07 01:12 16.00185 90.23223 35854 ft 459 kts 281°
2026-05-07 01:12 16.01694 90.16767 35855 ft 459 kts 281°
2026-05-07 01:13 16.03252 90.10324 35858 ft 459 kts 281°
2026-05-07 01:13 16.04803 90.03884 35856 ft 459 kts 281°
2026-05-07 01:14 16.06352 89.97442 35857 ft 459 kts 281°
2026-05-07 01:14 16.07898 89.91002 35857 ft 459 kts 281°
2026-05-07 01:15 16.09432 89.84604 35858 ft 459 kts 281°
2026-05-07 01:15 16.10973 89.78166 35858 ft 459 kts 281°
2026-05-07 01:16 16.12516 89.71713 35856 ft 458 kts 281°
2026-05-07 01:16 16.14055 89.65269 35859 ft 458 kts 281°
2026-05-07 01:17 16.15589 89.58836 35856 ft 458 kts 281°
2026-05-07 01:17 16.17112 89.52439 35855 ft 458 kts 281°
2026-05-07 01:18 16.18639 89.46012 35856 ft 458 kts 281°
2026-05-07 01:18 16.20168 89.39574 35860 ft 458 kts 281°
2026-05-07 01:19 16.21694 89.33137 35857 ft 458 kts 281°
2026-05-07 01:19 16.23207 89.26747 35860 ft 457 kts 281°
2026-05-07 01:20 16.24727 89.20315 35859 ft 457 kts 281°
2026-05-07 01:20 16.26245 89.13888 35852 ft 457 kts 281°
2026-05-07 01:21 16.27781 89.07464 35859 ft 457 kts 281°
2026-05-07 01:21 16.29349 89.01039 35859 ft 457 kts 281°
2026-05-07 01:22 16.30910 88.94622 35861 ft 457 kts 281°
2026-05-07 01:22 16.32468 88.88206 35860 ft 457 kts 281°
2026-05-07 01:23 16.34013 88.81836 35863 ft 456 kts 281°
2026-05-07 01:23 16.35565 88.75429 35860 ft 456 kts 281°
2026-05-07 01:24 16.37114 88.69025 35862 ft 456 kts 281°
2026-05-07 01:24 16.38661 88.62621 35861 ft 456 kts 281°
2026-05-07 01:25 16.40202 88.56228 35866 ft 455 kts 281°
2026-05-07 01:25 16.41744 88.49824 35865 ft 455 kts 281°
2026-05-07 01:26 16.43022 88.44512 35859 ft 455 kts 281°
2026-05-07 01:26 16.44805 88.37088 35857 ft 454 kts 281°
2026-05-07 01:27 16.46089 88.31735 35859 ft 454 kts 281°
2026-05-07 01:27 16.47608 88.25394 35864 ft 454 kts 281°
2026-05-07 01:28 16.49133 88.19017 35861 ft 453 kts 281°
2026-05-07 01:28 16.50655 88.12646 35860 ft 453 kts 281°
2026-05-07 01:29 16.52175 88.06271 35859 ft 453 kts 281°
2026-05-07 01:29 16.53692 87.99906 35862 ft 452 kts 281°
2026-05-07 01:30 16.55205 87.93540 35866 ft 452 kts 281°
2026-05-07 01:30 16.56716 87.87178 35862 ft 452 kts 281°
2026-05-07 01:31 16.58225 87.80814 35858 ft 452 kts 281°
2026-05-07 01:31 16.59731 87.74457 35864 ft 451 kts 281°
2026-05-07 01:32 16.61224 87.68141 35863 ft 451 kts 281°
2026-05-07 01:32 16.62724 87.61790 35866 ft 451 kts 281°
2026-05-07 01:33 16.64221 87.55441 35866 ft 451 kts 281°
2026-05-07 01:33 16.65716 87.49094 35863 ft 451 kts 281°
2026-05-07 01:34 16.67208 87.42747 35865 ft 450 kts 281°
2026-05-07 01:34 16.68698 87.36396 35865 ft 450 kts 281°
2026-05-07 01:35 16.70188 87.30046 35863 ft 450 kts 281°
2026-05-07 01:35 16.71675 87.23694 35861 ft 450 kts 281°
2026-05-07 01:36 16.73148 87.17397 35868 ft 450 kts 281°
2026-05-07 01:36 16.74655 87.11057 35864 ft 450 kts 281°
2026-05-07 01:37 16.76164 87.04721 35859 ft 450 kts 281°
2026-05-07 01:37 16.77672 86.98380 35864 ft 450 kts 281°
2026-05-07 01:38 16.79176 86.92047 35861 ft 449 kts 281°
2026-05-07 01:38 16.80678 86.85715 35865 ft 449 kts 281°
2026-05-07 01:39 16.82177 86.79386 35865 ft 449 kts 281°
2026-05-07 01:39 16.83674 86.73052 35867 ft 449 kts 281°
2026-05-07 01:40 16.85171 86.66712 35863 ft 449 kts 281°
2026-05-07 01:40 16.86662 86.60388 35863 ft 449 kts 281°
2026-05-07 01:41 16.88152 86.54060 35866 ft 449 kts 281°
2026-05-07 01:41 16.89632 86.47763 35870 ft 448 kts 281°
2026-05-07 01:42 16.91117 86.41437 35867 ft 448 kts 281°
2026-05-07 01:42 16.92601 86.35107 35869 ft 448 kts 281°
2026-05-07 01:43 16.94080 86.28786 35867 ft 448 kts 281°
2026-05-07 01:43 16.95549 86.22500 35870 ft 448 kts 281°
2026-05-07 01:44 16.97024 86.16183 35870 ft 448 kts 281°
2026-05-07 01:44 16.98497 86.09858 35865 ft 448 kts 281°
2026-05-07 01:45 16.99970 86.03530 35874 ft 448 kts 281°
2026-05-07 01:45 17.01439 85.97207 35867 ft 448 kts 281°
2026-05-07 01:46 17.02907 85.90879 35870 ft 448 kts 281°
2026-05-07 01:46 17.04373 85.84547 35870 ft 448 kts 281°
2026-05-07 01:47 17.05838 85.78215 35867 ft 448 kts 281°
2026-05-07 01:47 17.07300 85.71886 35872 ft 448 kts 281°
2026-05-07 01:48 17.08759 85.65554 35867 ft 448 kts 281°
2026-05-07 01:48 17.10219 85.59215 35873 ft 448 kts 281°
2026-05-07 01:49 17.11668 85.52913 35864 ft 448 kts 281°
2026-05-07 01:49 17.13124 85.46573 35868 ft 448 kts 281°
2026-05-07 01:50 17.14578 85.40232 35868 ft 448 kts 281°
2026-05-07 01:50 17.16028 85.33896 35869 ft 448 kts 281°
2026-05-07 01:51 17.17518 85.27569 35867 ft 448 kts 281°
2026-05-07 01:51 17.19028 85.21231 35867 ft 449 kts 281°
2026-05-07 01:52 17.20524 85.14938 35866 ft 449 kts 281°
2026-05-07 01:52 17.22029 85.08598 35866 ft 449 kts 281°
2026-05-07 01:53 17.23532 85.02259 35864 ft 449 kts 281°
2026-05-07 01:53 17.25033 84.95916 35868 ft 449 kts 281°
2026-05-07 01:54 17.26522 84.89613 35866 ft 449 kts 281°
2026-05-07 01:54 17.28020 84.83267 35866 ft 449 kts 281°
2026-05-07 01:55 17.29514 84.76924 35865 ft 449 kts 281°
2026-05-07 01:55 17.31008 84.70576 35868 ft 449 kts 281°
2026-05-07 01:56 17.32497 84.64234 35867 ft 448 kts 281°
2026-05-07 01:56 17.33975 84.57933 35868 ft 448 kts 281°
2026-05-07 01:57 17.35461 84.51592 35868 ft 448 kts 281°
2026-05-07 01:57 17.37015 84.45267 35869 ft 448 kts 282°
2026-05-07 01:58 17.38567 84.38946 35870 ft 448 kts 282°
2026-05-07 01:58 17.40118 84.32622 35869 ft 448 kts 282°
2026-05-07 01:59 17.41653 84.26348 35870 ft 447 kts 282°
2026-05-07 01:59 17.43194 84.20042 35869 ft 447 kts 282°
2026-05-07 02:00 17.44734 84.13733 35868 ft 447 kts 282°
2026-05-07 02:00 17.46271 84.07422 35868 ft 447 kts 282°
2026-05-07 02:01 17.47807 84.01112 35866 ft 446 kts 282°
2026-05-07 02:01 17.49340 83.94800 35869 ft 446 kts 282°
2026-05-07 02:02 17.50924 83.88516 35870 ft 446 kts 282°
2026-05-07 02:02 17.52513 83.82269 35868 ft 446 kts 282°
2026-05-07 02:03 17.54104 83.75993 35867 ft 446 kts 282°
2026-05-07 02:03 17.55571 83.70203 35873 ft 445 kts 282°
2026-05-07 02:04 17.57158 83.63926 35872 ft 445 kts 282°
2026-05-07 02:04 17.58743 83.57651 35869 ft 445 kts 282°
2026-05-07 02:05 17.60325 83.51379 35876 ft 445 kts 282°
2026-05-07 02:05 17.61907 83.45098 35879 ft 445 kts 282°
2026-05-07 02:06 17.63485 83.38826 35880 ft 445 kts 282°
2026-05-07 02:06 17.65060 83.32554 35884 ft 445 kts 282°
2026-05-07 02:07 17.66639 83.26275 35884 ft 445 kts 283°
2026-05-07 02:07 17.69660 83.17036 35885 ft 446 kts 286°
2026-05-07 02:08 17.71638 83.10910 35886 ft 446 kts 286°
2026-05-07 02:08 17.73623 83.04743 35884 ft 446 kts 286°
2026-05-07 02:09 17.75609 82.98566 35887 ft 446 kts 286°
2026-05-07 02:09 17.77588 82.92404 35890 ft 446 kts 286°
2026-05-07 02:10 17.79570 82.86223 35893 ft 446 kts 286°
2026-05-07 02:10 17.81546 82.80053 35904 ft 446 kts 286°
2026-05-07 02:11 17.83520 82.73883 35902 ft 446 kts 286°
2026-05-07 02:11 17.85480 82.67752 35918 ft 446 kts 286°
2026-05-07 02:12 17.87450 82.61579 35924 ft 446 kts 286°
2026-05-07 02:12 17.89418 82.55402 35930 ft 446 kts 286°
2026-05-07 02:13 17.91386 82.49223 35933 ft 446 kts 285°
2026-05-07 02:13 17.93352 82.43044 35932 ft 446 kts 285°
2026-05-07 02:14 17.95314 82.36866 35937 ft 446 kts 285°
2026-05-07 02:14 17.96945 82.31723 35935 ft 446 kts 285°
2026-05-07 02:15 17.98906 82.25537 35934 ft 446 kts 285°
2026-05-07 02:15 18.00863 82.19355 35934 ft 446 kts 285°
2026-05-07 02:16 18.02823 82.13154 35927 ft 446 kts 285°
2026-05-07 02:16 18.04779 82.06961 35927 ft 446 kts 285°
2026-05-07 02:17 18.06734 82.00773 35920 ft 446 kts 286°
2026-05-07 02:17 18.08761 81.94603 35916 ft 447 kts 286°
2026-05-07 02:18 18.10784 81.88432 35904 ft 446 kts 286°
2026-05-07 02:18 18.12791 81.82298 35902 ft 446 kts 286°
2026-05-07 02:19 18.14810 81.76117 35898 ft 447 kts 286°
2026-05-07 02:19 18.16829 81.69931 35899 ft 446 kts 286°
2026-05-07 02:20 18.18842 81.63754 35900 ft 446 kts 286°
2026-05-07 02:20 18.20843 81.57607 35899 ft 447 kts 286°
2026-05-07 02:21 18.22856 81.51418 35895 ft 446 kts 286°
2026-05-07 02:21 18.24861 81.45244 35895 ft 446 kts 286°
2026-05-07 02:22 18.26867 81.39061 35903 ft 446 kts 286°
2026-05-07 02:22 18.28870 81.32878 35904 ft 446 kts 286°
2026-05-07 02:23 18.30858 81.26736 35906 ft 446 kts 286°
2026-05-07 02:23 18.32856 81.20550 35907 ft 446 kts 286°
2026-05-07 02:24 18.34852 81.14370 35910 ft 446 kts 286°
2026-05-07 02:24 18.36847 81.08180 35913 ft 446 kts 286°
2026-05-07 02:25 18.38840 81.01992 35912 ft 446 kts 286°
2026-05-07 02:25 18.40828 80.95811 35911 ft 446 kts 286°
2026-05-07 02:26 18.42800 80.89669 35913 ft 446 kts 286°
2026-05-07 02:26 18.44786 80.83479 35919 ft 446 kts 286°
2026-05-07 02:27 18.46767 80.77297 35915 ft 446 kts 286°
2026-05-07 02:27 18.48748 80.71108 35915 ft 445 kts 286°
2026-05-07 02:28 18.50726 80.64921 35915 ft 445 kts 286°
2026-05-07 02:28 18.52696 80.58730 35914 ft 445 kts 285°
2026-05-07 02:29 18.54561 80.52503 35922 ft 445 kts 285°
2026-05-07 02:29 18.56431 80.46280 35920 ft 445 kts 285°
2026-05-07 02:30 18.58300 80.40056 35918 ft 445 kts 285°
2026-05-07 02:30 18.60156 80.33869 35920 ft 445 kts 285°
2026-05-07 02:31 18.62024 80.27631 35916 ft 445 kts 285°
2026-05-07 02:31 18.63887 80.21402 35918 ft 445 kts 285°
2026-05-07 02:32 18.65746 80.15178 35919 ft 445 kts 285°
2026-05-07 02:32 18.67602 80.08960 35920 ft 445 kts 285°
2026-05-07 02:33 18.69459 80.02724 35923 ft 445 kts 285°
2026-05-07 02:33 18.71308 79.96513 35921 ft 445 kts 285°
2026-05-07 02:34 18.73150 79.90313 35921 ft 445 kts 285°
2026-05-07 02:34 18.74997 79.84091 35922 ft 444 kts 285°
2026-05-07 02:35 18.76844 79.77856 35922 ft 444 kts 285°
2026-05-07 02:35 18.78687 79.71628 35926 ft 444 kts 285°
2026-05-07 02:36 18.80527 79.65405 35925 ft 444 kts 285°
2026-05-07 02:36 18.82365 79.59176 35924 ft 444 kts 285°
2026-05-07 02:37 18.84203 79.52942 35928 ft 444 kts 285°
2026-05-07 02:37 18.86026 79.46751 35930 ft 444 kts 285°
2026-05-07 02:38 18.87857 79.40520 35935 ft 444 kts 285°
2026-05-07 02:38 18.89691 79.34275 35933 ft 445 kts 285°
2026-05-07 02:39 18.91521 79.28034 35935 ft 445 kts 285°
2026-05-07 02:39 18.93350 79.21786 35937 ft 445 kts 285°
2026-05-07 02:40 18.95177 79.15538 35938 ft 445 kts 285°
2026-05-07 02:40 18.97004 79.09282 35938 ft 446 kts 284°
2026-05-07 02:41 18.98829 79.03022 35940 ft 446 kts 285°
2026-05-07 02:41 19.00653 78.96759 35942 ft 446 kts 285°
2026-05-07 02:42 19.02475 78.90494 35942 ft 446 kts 285°
2026-05-07 02:42 19.04291 78.84239 35943 ft 445 kts 285°
2026-05-07 02:43 19.06094 78.78022 35944 ft 445 kts 285°
2026-05-07 02:43 19.07907 78.71763 35945 ft 445 kts 285°
2026-05-07 02:44 19.09719 78.65496 35947 ft 445 kts 285°
2026-05-07 02:44 19.11525 78.59242 35949 ft 445 kts 285°
2026-05-07 02:45 19.13317 78.53029 35946 ft 444 kts 285°
2026-05-07 02:45 19.15131 78.46732 35944 ft 444 kts 285°
2026-05-07 02:46 19.16917 78.40522 35942 ft 444 kts 285°
2026-05-07 02:46 19.18715 78.34261 35942 ft 444 kts 285°
2026-05-07 02:47 19.20508 78.28012 35940 ft 444 kts 285°
2026-05-07 02:47 19.22300 78.21759 35941 ft 444 kts 285°
2026-05-07 02:48 19.24089 78.15506 35938 ft 444 kts 285°
2026-05-07 02:48 19.25253 78.09184 35935 ft 442 kts 275°
2026-05-07 02:49 19.25931 78.02711 35930 ft 442 kts 275°
2026-05-07 02:49 19.26585 77.96244 35927 ft 442 kts 275°
2026-05-07 02:50 19.27234 77.89770 35924 ft 442 kts 275°
2026-05-07 02:50 19.27881 77.83294 35925 ft 442 kts 275°
2026-05-07 02:51 19.28525 77.76823 35930 ft 442 kts 275°
2026-05-07 02:51 19.29168 77.70351 35927 ft 442 kts 275°
2026-05-07 02:52 19.29803 77.63917 35924 ft 442 kts 275°
2026-05-07 02:52 19.30441 77.57443 35919 ft 442 kts 275°
2026-05-07 02:53 19.31077 77.50957 35918 ft 442 kts 275°
2026-05-07 02:53 19.31711 77.44473 35916 ft 442 kts 275°
2026-05-07 02:54 19.32343 77.37987 35913 ft 442 kts 275°
2026-05-07 02:54 19.32972 77.31503 35911 ft 442 kts 275°
2026-05-07 02:55 19.33598 77.25025 35913 ft 442 kts 275°
2026-05-07 02:55 19.34218 77.18587 35912 ft 442 kts 275°
2026-05-07 02:56 19.34840 77.12104 35914 ft 442 kts 275°
2026-05-07 02:56 19.35460 77.05629 35910 ft 442 kts 275°
2026-05-07 02:57 19.36077 76.99142 35908 ft 442 kts 275°
2026-05-07 02:57 19.36692 76.92662 35906 ft 442 kts 275°
2026-05-07 02:58 19.37305 76.86188 35905 ft 442 kts 275°
2026-05-07 02:58 19.37971 76.79716 35902 ft 442 kts 276°
2026-05-07 02:59 19.38652 76.73250 35900 ft 442 kts 276°
2026-05-07 02:59 19.39330 76.66785 35903 ft 442 kts 276°
2026-05-07 03:00 19.40005 76.60321 35899 ft 442 kts 276°
2026-05-07 03:00 19.40678 76.53854 35900 ft 442 kts 276°
2026-05-07 03:01 19.41236 76.48473 35899 ft 442 kts 276°
2026-05-07 03:01 19.42013 76.40959 35897 ft 442 kts 276°
2026-05-07 03:02 19.42680 76.34484 35894 ft 442 kts 276°
2026-05-07 03:02 19.43236 76.29062 35897 ft 442 kts 276°
2026-05-07 03:03 19.43895 76.22628 35895 ft 442 kts 276°
2026-05-07 03:03 19.44554 76.16159 35895 ft 442 kts 276°
2026-05-07 03:04 19.45213 76.09679 35892 ft 442 kts 276°
2026-05-07 03:04 19.45869 76.03192 35891 ft 442 kts 276°
2026-05-07 03:05 19.46524 75.96705 35889 ft 442 kts 275°
2026-05-07 03:05 19.47171 75.90263 35884 ft 443 kts 275°
2026-05-07 03:06 19.47821 75.83779 35888 ft 442 kts 275°
2026-05-07 03:06 19.48468 75.77293 35887 ft 443 kts 275°
2026-05-07 03:07 19.49113 75.70804 35888 ft 443 kts 275°
2026-05-07 03:07 19.49758 75.64314 35882 ft 443 kts 275°
2026-05-07 03:08 19.50419 75.57823 35884 ft 443 kts 275°
2026-05-07 03:08 19.51078 75.51328 35885 ft 443 kts 275°
2026-05-07 03:09 19.51735 75.44831 35887 ft 443 kts 275°
2026-05-07 03:09 19.52390 75.38337 35887 ft 443 kts 275°
2026-05-07 03:10 19.53043 75.31836 35889 ft 444 kts 275°
2026-05-07 03:10 19.53690 75.25369 35887 ft 444 kts 275°
2026-05-07 03:11 19.54340 75.18847 35891 ft 445 kts 275°
2026-05-07 03:11 19.54987 75.12328 35888 ft 445 kts 275°
2026-05-07 03:12 19.55633 75.05800 35889 ft 445 kts 275°
2026-05-07 03:12 19.56277 74.99269 35892 ft 445 kts 275°
2026-05-07 03:13 19.56919 74.92735 35888 ft 445 kts 275°
2026-05-07 03:13 19.57238 74.89473 35740 ft 445 kts 275°
2026-05-07 03:13 19.57553 74.86251 34981 ft 447 kts 275°
2026-05-07 03:14 19.57874 74.82960 34161 ft 451 kts 275°
2026-05-07 03:14 19.58197 74.79646 33380 ft 452 kts 275°
2026-05-07 03:14 19.58843 74.73007 31822 ft 453 kts 276°
2026-05-07 03:15 19.59165 74.69686 31011 ft 454 kts 276°
2026-05-07 03:15 19.59488 74.66345 30207 ft 456 kts 276°
2026-05-07 03:15 19.59809 74.63008 29470 ft 454 kts 277°
2026-05-07 03:15 19.60129 74.59689 28765 ft 450 kts 277°
2026-05-07 03:16 19.60393 74.56404 28035 ft 448 kts 271°
2026-05-07 03:16 19.59979 74.53127 27317 ft 449 kts 257°
2026-05-07 03:16 19.59164 74.49956 26765 ft 443 kts 257°
2026-05-07 03:16 19.58352 74.46822 26140 ft 439 kts 257°
2026-05-07 03:17 19.57529 74.43722 25510 ft 435 kts 257°
2026-05-07 03:17 19.56696 74.40633 24889 ft 432 kts 257°
2026-05-07 03:17 19.55878 74.37617 24281 ft 429 kts 257°
2026-05-07 03:17 19.55054 74.34585 23658 ft 427 kts 257°
2026-05-07 03:18 19.54230 74.31560 22954 ft 424 kts 257°
2026-05-07 03:18 19.53413 74.28568 22296 ft 421 kts 257°
2026-05-07 03:18 19.52606 74.25609 21688 ft 416 kts 257°
2026-05-07 03:18 19.51807 74.22680 21096 ft 411 kts 256°
2026-05-07 03:19 19.51013 74.19776 20503 ft 408 kts 256°
2026-05-07 03:19 19.50226 74.16897 19918 ft 404 kts 256°
2026-05-07 03:19 19.49447 74.14046 19331 ft 402 kts 256°
2026-05-07 03:19 19.48671 74.11212 18757 ft 399 kts 255°
2026-05-07 03:20 19.47899 74.08392 18171 ft 398 kts 255°
2026-05-07 03:20 19.47129 74.05582 17508 ft 395 kts 255°
2026-05-07 03:20 19.46369 74.02807 17226 ft 384 kts 255°
2026-05-07 03:20 19.45633 74.00127 16950 ft 374 kts 255°
2026-05-07 03:21 19.44917 73.97520 16715 ft 363 kts 254°
2026-05-07 03:21 19.44232 73.95025 16516 ft 352 kts 254°
2026-05-07 03:21 19.43559 73.92576 16308 ft 341 kts 254°
2026-05-07 03:21 19.42905 73.90197 16140 ft 331 kts 254°
2026-05-07 03:22 19.42273 73.87905 16072 ft 317 kts 253°
2026-05-07 03:22 19.41398 73.85783 15766 ft 314 kts 241°
2026-05-07 03:22 19.40338 73.83754 15481 ft 317 kts 241°
2026-05-07 03:22 19.39275 73.81700 15180 ft 317 kts 241°
2026-05-07 03:23 19.38219 73.79654 14872 ft 317 kts 241°
2026-05-07 03:23 19.37163 73.77605 14547 ft 316 kts 240°
2026-05-07 03:23 19.36111 73.75560 14233 ft 316 kts 240°
2026-05-07 03:23 19.35070 73.73540 13912 ft 315 kts 240°
2026-05-07 03:24 19.34022 73.71507 13572 ft 314 kts 240°
2026-05-07 03:24 19.32969 73.69463 12962 ft 322 kts 240°
2026-05-07 03:24 19.31876 73.67344 12255 ft 334 kts 240°
2026-05-07 03:24 19.30743 73.65150 11766 ft 347 kts 240°
2026-05-07 03:25 19.29576 73.62887 11481 ft 347 kts 240°
2026-05-07 03:25 19.28443 73.60694 11368 ft 333 kts 240°
2026-05-07 03:25 19.27348 73.58573 11186 ft 322 kts 240°
2026-05-07 03:25 19.26290 73.56527 11007 ft 312 kts 240°
2026-05-07 03:26 19.25266 73.54545 10811 ft 302 kts 240°
2026-05-07 03:26 19.24274 73.52626 10638 ft 293 kts 240°
2026-05-07 03:26 19.23312 73.50765 10456 ft 284 kts 240°
2026-05-07 03:26 19.22380 73.48964 10301 ft 275 kts 240°
2026-05-07 03:27 19.21481 73.47213 10126 ft 267 kts 242°
2026-05-07 03:27 19.20832 73.45367 9794 ft 270 kts 251°
2026-05-07 03:27 19.20273 73.43456 9411 ft 273 kts 251°
2026-05-07 03:27 19.19705 73.41546 9062 ft 272 kts 251°
2026-05-07 03:28 19.19134 73.39641 8723 ft 271 kts 251°
2026-05-07 03:28 19.18562 73.37748 8371 ft 269 kts 251°
2026-05-07 03:28 19.17995 73.35875 8066 ft 266 kts 251°
2026-05-07 03:28 19.17428 73.34004 7674 ft 268 kts 251°
2026-05-07 03:29 19.16860 73.32134 7343 ft 266 kts 252°
2026-05-07 03:29 19.16294 73.30269 7019 ft 265 kts 252°
2026-05-07 03:29 19.15731 73.28421 6714 ft 263 kts 252°
2026-05-07 03:29 19.15180 73.26608 6379 ft 262 kts 252°
2026-05-07 03:30 19.14621 73.24773 6021 ft 262 kts 252°
2026-05-07 03:30 19.14063 73.22942 5671 ft 261 kts 253°
2026-05-07 03:30 19.13507 73.21117 5322 ft 259 kts 253°
2026-05-07 03:30 19.12960 73.19321 5001 ft 255 kts 253°
2026-05-07 03:31 19.12417 73.17542 4675 ft 252 kts 253°
2026-05-07 03:31 19.11886 73.15803 4425 ft 246 kts 253°
2026-05-07 03:31 19.11370 73.14108 4277 ft 236 kts 253°
2026-05-07 03:31 19.10875 73.12491 4133 ft 226 kts 253°
2026-05-07 03:32 19.10402 73.10941 3995 ft 215 kts 254°
2026-05-07 03:32 19.09950 73.09464 3767 ft 205 kts 254°
2026-05-07 03:32 19.09536 73.08087 3545 ft 190 kts 256°
2026-05-07 03:32 19.09270 73.06757 3326 ft 182 kts 265°
2026-05-07 03:33 19.09160 73.05444 3115 ft 176 kts 270°
2026-05-07 03:33 19.09116 73.04158 2902 ft 175 kts 271°
2026-05-07 03:33 19.09100 73.02892 2693 ft 173 kts 272°
2026-05-07 03:33 19.09080 73.01606 2484 ft 172 kts 272°
2026-05-07 03:34 19.09061 73.00376 2271 ft 166 kts 272°
2026-05-07 03:34 19.09044 72.99158 2063 ft 165 kts 271°
2026-05-07 03:34 19.09027 72.97947 1849 ft 163 kts 271°
2026-05-07 03:34 19.09011 72.96814 1662 ft 147 kts 271°
2026-05-07 03:35 19.08997 72.95756 1479 ft 141 kts 271°
2026-05-07 03:35 19.08983 72.94731 1294 ft 139 kts 270°
2026-05-07 03:35 19.08968 72.93710 1113 ft 139 kts 270°
2026-05-07 03:35 19.08954 72.92690 939 ft 139 kts 270°
2026-05-07 03:36 19.08940 72.91672 777 ft 139 kts 270°
2026-05-07 03:36 19.08917 72.90653 617 ft 138 kts 269°
2026-05-07 03:36 19.08896 72.89636 408 ft 139 kts 270°
2026-05-07 03:36 19.08894 72.88579 250 ft 149 kts 271°
2026-05-07 03:37 19.08877 72.87483 60 ft 145 kts 269°
2026-05-07 03:37 19.08867 72.86539 27 ft 106 kts 269°
2026-05-07 03:37 19.08873 72.86029 29 ft 48 kts 283°
2026-05-07 03:37 19.08956 72.85830 27 ft 12 kts 301°
2026-05-07 03:38 19.08978 72.85791 27 ft 1 kts 298°
2026-05-07 03:38 19.08985 72.85776 27 ft 4 kts 298°
2026-05-07 03:38 19.08994 72.85769 27 ft 2 kts 339°
2026-05-07 03:38 19.09024 72.85799 27 ft 12 kts 72°
2026-05-07 03:39 19.09030 72.85943 27 ft 27 kts 89°
2026-05-07 03:39 19.09033 72.86173 27 ft 26 kts 88°
2026-05-07 03:39 19.09035 72.86370 27 ft 28 kts 89°
2026-05-07 03:39 19.09043 72.86580 28 ft 29 kts 91°
2026-05-07 03:40 19.09076 72.86791 28 ft 31 kts 50°
2026-05-07 03:40 19.09132 72.86978 28 ft 19 kts 89°
2026-05-07 03:40 19.09198 72.87090 28 ft 20 kts 30°
2026-05-07 03:40 19.09276 72.87155 28 ft 8 kts 14°
2026-05-07 03:41 19.09312 72.87156 28 ft 1 kts
2026-05-07 03:41 19.09322 72.87156 28 ft 0 kts